Theta_e
306 306 308 309 311 315 317 315 317 312 308 308 303 301 299 298 297 296 295 294 293 293 295 299 302 307 311 317 322 324 324 325 324 323 323 322 322 322 322 321 322 321 321 321
312 312 312 315 314 312 310 310 310 309 306 304 299 296 295 294 294 293 293 292 291 290 293 295 297 300 306 311 318 322 323 323 324 324 324 323 322 323 323 323 323 322 322 321
313 312 312 315 311 307 305 304 306 305 302 301 297 294 293 292 291 291 291 289 289 289 290 292 294 296 300 305 310 316 321 323 323 324 323 324 324 324 323 323 323 323 322 321
310 310 313 308 306 305 303 300 300 300 298 298 294 292 291 290 290 289 288 288 289 290 290 291 293 295 297 301 306 309 310 316 320 322 324 324 324 324 324 322 323 323 322 321
312 313 310 306 303 302 307 301 298 297 296 298 295 296 291 290 288 288 287 288 289 289 290 291 292 293 296 298 301 303 302 305 310 317 322 322 321 322 321 321 321 321 320 319
310 311 310 303 299 300 302 300 297 295 294 292 295 293 290 289 288 287 287 288 288 289 290 291 291 292 293 295 297 298 298 297 299 303 310 318 318 317 317 316 317 316 316 316
308 308 304 297 298 300 298 300 295 293 292 291 290 290 288 287 287 287 287 287 288 289 289 289 290 292 292 292 293 293 295 295 297 296 295 300 307 306 305 305 304 305 307 308
305 304 303 295 297 298 298 295 293 292 290 289 288 287 287 286 286 286 286 287 288 288 288 289 290 290 290 290 291 293 294 295 297 296 294 294 298 299 299 299 299 298 298 298
301 299 295 293 293 292 292 292 291 291 289 288 287 286 286 285 285 285 286 286 286 287 287 288 289 289 289 288 290 293 294 294 294 295 294 295 296 296 298 297 296 295 295 295
299 295 293 293 292 290 290 290 289 289 288 287 286 286 285 285 285 284 284 285 286 287 287 287 288 288 287 288 290 291 291 291 292 294 293 293 293 294 294 294 294 295 294 291
297 294 292 290 290 290 289 288 288 287 287 287 286 285 285 284 284 283 283 284 285 285 286 286 286 287 287 288 288 288 289 288 289 290 291 292 291 291 290 289 291 291 289 291
294 293 291 290 289 289 288 288 287 287 286 286 285 284 284 283 283 283 283 284 285 285 285 285 285 285 285 286 287 288 287 287 286 286 286 286 287 287 287 287 288 288 288 289
293 292 290 288 288 287 287 287 286 286 285 285 284 284 283 283 282 282 283 283 284 284 284 284 284 285 284 284 285 285 285 285 285 285 285 284 285 285 285 285 285 285 285 285
292 290 289 290 287 287 286 286 285 285 284 283 283 283 283 283 283 283 281 280 280 280 281 282 282 282 282 282 282 283 283 283 283 283 283 283 283 284 284 285 285 285 285 284
292 292 290 289 289 288 286 285 284 283 283 283 282 282 282 281 280 279 279 279 279 279 279 279 280 281 281 281 281 280 281 281 281 281 281 281 281 281 281 281 281 281 281 281
291 290 289 289 288 287 286 285 284 283 282 281 281 280 279 279 279 279 278 278 279 279 278 278 278 279 279 280 280 280 279 279 279 279 279 279 279 279 278 277 277 278 278 277
291 290 289 287 287 286 285 284 283 283 282 282 281 279 279 279 278 278 278 278 278 277 277 278 277 277 278 278 279 278 278 278 278 278 278 278 277 277 277 276 276 275 275 275
291 290 288 287 286 285 284 283 283 282 281 280 279 279 279 278 278 278 277 277 276 276 276 276 277 276 276 277 277 277 277 277 277 277 277 277 276 276 276 275 275 274 274 274
288 287 286 285 285 284 284 283 282 281 280 279 278 279 278 278 277 277 278 278 277 276 276 276 275 275 275 276 276 276 276 276 276 276 276 276 275 275 275 274 274 273 273 272
286 286 285 285 284 284 283 282 281 280 279 279 279 278 278 277 276 277 277 277 276 275 275 276 274 274 274 274 275 274 275 275 274 274 274 274 274 274 273 273 273 272 272 271
285 285 285 284 284 283 281 280 280 280 279 279 278 277 277 277 276 276 276 276 276 274 274 274 274 273 273 273 273 273 273 273 273 273 273 273 273 273 272 272 272 271 271 270
284 284 284 283 282 281 280 280 279 279 279 278 277 277 277 277 276 276 276 276 275 274 273 273 273 272 272 272 272 271 271 271 271 271 271 271 271 271 271 271 270 270 270 269
284 283 283 282 281 281 280 280 279 278 278 277 277 277 276 276 276 275 275 275 274 273 273 273 272 272 272 271 271 271 270 270 270 270 270 270 269 269 269 269 269 269 269 268
283 283 281 281 281 281 280 279 279 279 279 278 278 278 277 276 276 276 275 274 273 273 272 272 272 271 271 271 270 270 270 269 269 269 269 269 269 269 268 268 268 268 268 267
283 282 282 281 282 281 281 280 280 280 279 279 279 278 277 276 276 275 274 273 273 273 272 272 272 271 271 271 270 270 270 269 269 269 269 268 268 268 268 268 268 267 267 267
282 282 282 282 281 281 280 279 280 280 279 279 278 277 277 276 276 275 274 274 273 273 273 272 272 272 271 271 270 270 269 269 269 269 269 268 268 268 267 267 267 267 267 266
282 282 282 281 280 280 280 279 278 278 278 278 277 276 275 276 275 274 274 274 273 273 273 272 272 272 271 271 270 270 270 269 269 268 268 268 267 267 267 267 267 266 266 266
Wind_Speed
19 21 15 15 20 15 10 4 3 11 20 13 16 16 20 21 23 25 27 28 31 32 33 30 26 22 17 12 2 7 9 11 11 12 12 10 9 8 9 9 9 12 11 8
20 18 15 6 12 19 12 15 10 12 15 11 17 19 21 23 24 25 25 26 26 29 31 31 29 24 20 14 6 5 10 11 12 13 12 10 10 8 8 8 9 11 14 14
8 20 15 11 17 20 19 20 13 14 8 8 12 16 22 23 23 23 23 25 26 27 28 28 26 24 23 18 9 2 10 14 15 15 10 18 15 15 15 15 14 14 15 18
3 3 7 7 18 23 25 17 15 12 12 11 17 23 26 25 22 22 22 24 26 26 25 26 24 22 21 17 11 2 7 11 15 15 16 19 19 16 13 11 14 19 19 20
3 4 6 12 13 10 10 10 16 15 15 14 8 7 27 26 24 23 23 23 24 26 25 25 25 23 21 20 16 11 11 10 9 15 17 17 15 19 17 15 13 13 14 14
2 5 4 3 21 23 8 6 17 17 16 16 16 7 7 20 21 23 22 23 24 24 27 29 29 27 27 27 25 23 21 14 12 9 13 18 18 17 16 15 15 14 14 13
5 4 4 16 23 21 6 3 15 15 16 20 10 11 11 14 18 19 22 23 23 27 29 29 29 28 32 31 31 23 20 19 16 16 18 16 19 18 17 17 16 15 13 12
4 5 2 30 7 6 6 16 14 15 15 19 17 16 17 18 20 21 23 24 25 27 28 27 29 32 32 33 25 23 24 25 26 23 20 20 20 22 21 20 21 22 21 20
5 4 7 13 16 15 15 17 14 14 13 16 18 18 18 19 21 22 22 24 25 26 27 28 29 30 31 31 30 27 25 26 26 25 22 23 24 24 22 19 20 23 24 26
2 7 12 14 14 14 14 15 14 12 13 15 18 17 19 19 19 20 20 21 21 24 28 30 28 27 26 24 25 28 31 30 27 26 24 25 24 26 24 22 22 21 20 24
6 10 13 12 10 11 13 14 14 14 15 16 15 16 16 18 18 18 18 20 21 24 25 26 25 24 22 22 22 23 23 26 27 27 27 26 26 28 24 24 24 24 22 21
2 6 11 6 6 8 12 14 12 13 16 16 15 16 16 17 15 15 16 17 19 20 21 22 22 24 24 21 20 20 21 22 22 22 23 24 24 25 24 23 23 23 20 21
5 10 15 14 11 11 14 14 13 14 14 15 13 12 11 13 12 14 16 17 18 18 17 18 19 21 23 22 20 20 20 19 18 17 17 17 17 18 20 19 20 19 18 18
12 16 11 4 11 13 11 12 12 14 14 13 11 11 12 13 12 13 16 16 16 16 16 16 16 18 19 20 19 18 18 18 17 16 15 13 13 13 12 12 13 13 13 12
8 9 14 16 15 15 11 10 12 14 12 12 11 12 12 14 15 16 14 13 14 14 15 15 14 16 16 15 17 16 14 14 13 12 12 11 10 10 10 8 9 10 8 8
10 13 14 15 15 14 14 12 15 14 11 11 12 12 12 12 12 12 13 13 13 15 15 14 13 13 12 12 12 13 13 12 11 11 11 11 11 12 12 11 8 7 6 8
15 15 17 17 16 15 13 10 8 9 10 10 10 9 8 9 9 10 11 13 13 13 12 12 12 10 9 9 10 11 12 13 13 10 9 10 10 11 12 11 11 9 8 7
12 15 13 12 14 13 11 9 11 11 11 11 10 8 8 7 10 10 12 14 15 12 11 11 11 8 6 6 8 9 8 9 11 10 9 9 10 8 7 9 10 9 8 6
14 17 16 14 11 11 12 13 11 10 9 8 7 7 8 9 9 9 8 10 14 13 12 11 11 10 5 5 7 7 6 7 8 4 6 7 7 5 5 6 7 8 8 9
17 15 14 14 12 12 13 11 9 8 7 6 6 7 8 9 9 10 11 9 16 15 14 14 12 11 7 5 8 8 5 4 5 5 5 5 5 6 6 5 5 6 7 8
14 14 14 14 14 12 9 8 7 5 5 5 6 6 6 7 7 7 9 11 13 14 14 15 14 10 6 7 10 9 5 4 4 4 4 3 2 4 5 6 6 6 7 8
15 17 17 13 10 9 8 6 4 3 4 4 4 4 4 4 5 8 8 9 14 14 12 12 13 12 7 7 8 8 8 6 5 6 7 6 8 7 9 8 7 9 8 8
19 16 13 10 8 6 5 3 1 2 5 4 4 10 6 5 4 6 10 11 14 13 12 8 10 13 8 8 9 10 9 7 8 9 10 9 7 7 9 9 8 9 10 9
16 13 11 9 6 5 3 4 4 5 8 9 7 10 9 7 6 9 14 17 15 13 12 10 11 15 15 15 10 11 11 10 10 12 14 11 8 9 10 10 11 11 14 11
14 12 10 8 6 3 3 4 6 8 5 6 8 10 10 12 14 16 13 13 13 14 13 12 16 15 16 15 12 13 16 14 11 12 12 12 12 11 10 11 12 14 14 14
14 11 9 5 4 4 3 1 4 3 3 7 10 8 6 9 12 14 15 14 12 11 11 13 16 16 15 17 18 16 15 12 11 13 16 17 17 16 14 14 14 15 15 15
12 7 6 3 4 8 7 8 9 10 11 11 11 11 14 13 12 13 13 13 12 12 14 15 15 16 17 18 17 17 16 15 14 15 16 17 17 15 13 15 17 17 18 19
Wind_Direction
241 251 274 279 286 68 63 57 305 92 58 40 35 29 28 20 20 19 17 15 11 7 7 6 6 6 1 1 41 165 176 208 199 189 198 214 234 217 214 213 215 196 188 172
274 211 225 237 88 85 49 31 68 68 52 52 42 37 33 26 23 20 16 12 10 9 9 8 5 7 2 352 9 171 175 192 185 185 192 198 205 211 203 194 197 203 207 203
94 114 148 81 97 91 80 41 41 45 3 39 63 52 36 27 25 20 17 14 14 15 15 11 10 8 10 360 343 116 158 164 190 186 197 192 195 189 204 202 198 201 214 217
275 2 55 88 60 88 79 49 39 45 25 102 95 70 47 36 28 23 22 23 26 25 25 22 21 22 23 14 351 52 118 133 154 182 197 186 184 191 191 189 201 206 206 209
102 56 150 34 9 345 351 54 35 31 28 78 143 41 42 33 31 32 31 35 37 38 36 37 36 37 42 44 35 13 46 90 118 146 183 187 182 186 201 198 204 178 176 176
337 63 63 14 326 317 298 55 35 36 34 28 34 53 21 22 30 29 37 41 44 47 48 47 44 48 50 54 53 46 31 22 89 102 146 182 176 172 174 177 182 178 176 171
13 90 76 351 322 323 67 20 53 51 53 51 64 70 53 38 39 41 39 44 49 49 49 51 51 49 53 53 55 58 62 61 51 81 95 118 143 143 143 138 138 134 140 138
358 62 13 359 9 63 76 63 67 64 69 75 75 69 60 53 53 50 49 49 52 55 53 50 54 55 54 52 55 61 68 72 74 70 75 84 108 118 118 114 111 107 104 97
19 87 74 46 58 57 72 72 62 73 78 86 81 74 70 65 58 55 55 55 54 57 59 56 54 54 56 58 59 61 62 67 74 82 87 86 87 88 87 88 92 92 94 94
122 59 54 50 59 60 70 78 77 81 90 88 86 80 74 68 62 56 48 50 53 56 56 54 54 57 58 56 54 63 65 65 67 72 72 77 84 90 87 90 90 87 90 91
81 112 99 58 59 77 79 82 85 87 86 85 84 75 73 66 59 57 54 51 53 56 56 58 56 52 52 51 58 63 65 62 60 62 63 69 74 74 79 83 90 97 96 97
99 100 98 84 81 94 95 91 89 90 85 79 79 78 73 66 60 57 56 55 57 60 60 57 58 59 52 51 52 55 61 63 64 61 61 66 73 80 82 88 93 94 96 96
113 100 116 119 102 97 94 94 96 93 91 91 84 82 83 84 72 65 58 55 54 57 60 58 54 55 56 48 49 60 59 59 63 65 66 67 71 75 81 84 90 91 94 100
111 113 119 153 115 100 103 102 103 100 96 89 83 80 80 78 76 65 60 53 54 57 59 60 56 54 50 55 45 44 52 55 57 59 64 64 63 67 74 76 84 92 99 95
98 107 116 109 111 108 115 109 97 88 88 88 85 79 75 74 70 65 60 56 54 57 57 55 55 55 50 46 47 43 49 52 51 55 54 48 46 51 52 55 70 76 72 89
128 113 119 118 117 120 119 113 110 110 108 101 90 77 70 67 65 61 55 50 45 44 44 46 50 51 42 35 38 33 31 33 33 40 50 45 37 37 44 56 71 87 77 60
134 129 126 114 119 122 125 135 130 117 109 103 93 83 66 59 55 48 41 38 33 31 30 30 40 44 42 34 29 31 24 24 34 42 37 43 45 36 28 39 52 67 71 54
138 149 154 155 150 149 144 131 116 108 99 88 77 67 56 48 43 43 39 24 22 20 16 20 22 38 30 23 26 22 13 8 14 19 28 26 21 22 35 23 24 27 31 26
135 133 139 145 154 146 131 124 115 103 92 82 70 58 46 38 36 28 30 25 15 8 9 10 3 13 15 355 350 7 359 358 21 13 9 6 21 25 9 10 15 10 5 4
145 150 150 144 140 133 126 117 106 99 90 76 57 45 44 40 38 20 8 15 9 6 350 15 9 359 357 345 345 354 342 344 351 354 347 6 344 352 345 345 343 341 342 342
154 153 149 142 137 131 124 112 100 84 69 48 34 33 32 29 33 35 353 342 353 349 337 354 354 357 343 333 337 337 330 308 312 322 324 314 313 315 311 311 302 307 309 309
149 147 144 141 134 131 128 116 96 49 17 2 0 356 343 357 21 3 347 333 346 332 325 336 349 352 341 332 337 346 343 351 332 307 299 301 286 281 288 296 304 303 295 304
152 147 143 141 138 131 116 93 25 26 22 354 56 33 13 358 351 325 328 331 333 333 328 334 349 4 350 333 336 348 340 330 329 330 323 324 324 305 320 306 307 310 279 283
153 150 148 145 130 111 107 73 72 51 31 23 10 2 4 6 345 308 313 320 333 347 348 348 355 356 0 352 329 338 339 337 317 319 318 308 280 300 313 312 313 315 319 312
157 153 149 136 132 94 66 38 25 5 19 8 343 333 323 328 335 339 340 333 336 341 344 347 347 341 343 345 348 330 315 316 322 328 326 329 325 306 292 296 303 308 308 312
162 159 157 167 128 157 165 203 247 278 231 252 282 292 314 307 303 320 324 331 336 335 333 323 328 327 327 324 326 326 332 313 306 311 313 315 316 314 290 289 294 299 301 302
159 162 181 217 218 241 256 264 252 249 271 283 289 286 280 273 295 308 313 316 316 313 308 310 311 312 313 313 313 314 322 320 316 308 304 305 308 308 306 300 300 292 291 293